[[{"header":{"parameterUnit":"m.s-1","parameterCategory":1,"la1":30.2991,"la2":30.254,"lo1":-89.0895,"lo2":-89.0444,"dy":0.0017,"dx":0.0017,"nx":28,"ny":28,"refTime":"2024-02-13T09:00:00:Z","depth":0,"parameterNumber":2,"parameterNumberName":"U-component_of_WINDS"},"data":[0,0,0,0,0,0,0,0,0,0,0,0,0,0,0,0,0,0,0,0,0,0,0,0,0,0,0,0,0,0,0,0,0,0,0,0,0,0,0,0,0,0,0,0,0,0,0,0,0,0,0,0,0,0,0,0,0,0,1.9631,1.9631,0,1.9627,1.9627,1.9627,1.9598,1.9598,1.9597,1.9596,1.9592,1.9592,1.9593,0,0,0,0,0,0,0,0,0,0,0,0,0,1.9614,1.9614,1.9631,1.9631,1.9631,1.9627,1.9627,1.9627,1.9598,1.9598,1.9597,1.9596,1.9591,1.9592,1.9593,0,0,0,0,0,0,0,0,0,0,0,0,0,1.9617,1.9614,1.9631,1.9616,1.9615,1.9627,1.9627,1.9627,1.9599,1.9598,1.9597,1.9596,1.9591,1.9592,1.9593,1.9618,0,0,1.9595,1.9595,0,0,0,0,0,0,0,0,1.9616,1.9617,1.9618,1.9617,1.9616,1.9612,1.9619,1.9624,1.9599,1.9605,1.9596,1.9595,1.9599,1.9599,1.9601,1.9618,1.9618,1.9595,1.9596,1.9596,1.9596,0,0,0,0,0,0,0,1.9616,1.9617,1.9629,1.9618,1.9617,1.961,1.9609,1.962,1.9608,1.9604,1.9602,1.9602,1.9598,1.96,1.96,1.9618,1.9595,1.9596,1.9596,1.9597,1.9657,1.9659,0,0,0,0,0,0,1.9618,1.9617,1.9629,1.9629,1.9613,1.9611,1.961,1.9614,1.9608,1.9606,1.9603,1.9601,1.9599,1.96,1.96,1.963,1.9596,1.9597,1.9597,1.9656,1.9658,1.9659,0,0,0,0,0,0,1.9618,1.9619,1.9629,1.9623,1.9623,1.9612,1.9617,1.9615,1.9616,1.9607,1.9604,1.9607,1.9598,1.9599,1.9614,1.963,1.9597,1.9598,1.9655,1.9657,1.9658,1.9691,0,0,0,0,0,0,1.9617,1.962,1.9629,1.9623,1.9624,1.9644,1.9618,1.9615,1.9618,1.9615,1.961,1.9608,1.9598,1.9613,1.9615,1.963,1.9598,1.9654,1.9656,1.9658,1.9688,1.9693,1.9698,0,0,0,0,0,1.9617,1.9638,1.963,1.9631,1.9635,1.9644,1.9645,1.9633,1.9619,1.9629,1.9623,1.9608,1.9628,1.9615,1.9617,1.9632,1.9652,1.9655,1.9658,1.9686,1.9692,1.9697,0,0,0,0,0,0,1.9645,1.9636,1.9627,1.9647,1.9647,1.964,1.9651,1.964,1.9643,1.964,1.9625,1.9624,1.9642,1.9639,1.9625,1.9658,1.9638,1.9641,1.9659,1.9665,1.9669,1.9669,1.9599,0,0,0,0,0,1.9653,1.9662,1.9654,1.9672,1.9672,1.9662,1.9665,1.9656,1.9655,1.9655,1.965,1.965,1.9656,1.966,1.9665,1.9688,1.9687,1.97,1.9704,1.9708,1.9711,1.9723,1.9729,1.9667,1.9667,1.9667,0,0,1.9671,1.9667,1.9673,1.9677,1.9676,1.9685,1.9662,1.9672,1.9679,1.9656,1.9671,1.9668,1.9666,1.9686,1.9694,1.9683,1.9728,1.9712,1.9715,1.9715,1.9727,1.9733,1.9738,1.9669,1.9669,1.9669,0,0,1.9707,1.9705,1.972,1.972,1.9719,1.9712,1.9716,1.9711,1.9708,1.9723,1.9707,1.9714,1.9725,1.9725,1.9727,1.9765,1.9752,1.9767,1.9792,1.9804,1.9809,1.9813,1.9827,1.9832,1.977,1.977,1.977,0,1.9728,1.9741,1.9729,1.9741,1.9744,1.9725,1.9741,1.9741,1.9741,1.9744,1.9733,1.9747,1.9744,1.9764,1.9774,1.9775,1.9779,1.9767,1.9809,1.9814,1.9817,1.983,1.9836,1.9772,1.9772,1.9772,1.9772,0,1.9768,1.9778,1.979,1.9792,1.9796,1.9809,1.98,1.9805,1.9797,1.9791,1.9807,1.9804,1.9809,1.9813,1.9804,1.9831,1.9825,1.9812,1.9792,1.9825,1.9837,1.9842,1.9775,1.9774,1.9774,1.9773,0,0,1.982,1.9816,1.9821,1.9822,1.9821,1.9828,1.9841,1.9846,1.9852,1.9853,1.9864,1.9875,1.9863,1.9865,1.9856,1.9867,1.9899,1.9853,1.9852,1.9861,1.9929,1.9939,1.9945,1.989,1.9891,1.9892,1.9929,0,1.9854,1.9877,1.9867,1.9891,1.99,1.9883,1.9895,1.9896,1.9892,1.9899,1.9894,1.9902,1.9886,1.9887,1.9897,1.9893,1.9912,1.989,1.99,1.9901,1.99,1.9951,1.9961,1.9996,1.9934,1.9935,1.9935,0,1.9897,1.9902,1.9926,1.9925,1.9928,1.9939,1.9943,1.9951,1.9951,1.9948,1.9951,1.994,1.9953,1.9934,1.9952,1.9938,1.9942,1.994,1.9941,1.9941,1.9919,1.9952,2.0007,2.0012,1.9943,1.9942,1.9942,0,1.9933,1.9945,1.9961,1.9963,1.9961,1.9969,1.9969,1.9969,1.9973,1.9977,1.998,1.9986,1.9989,1.9994,1.9985,1.9972,2.0005,1.9984,2.0002,2.0002,2.0009,2.0008,2.0065,2.0012,2.0012,2.0012,2.0012,0,1.9972,1.9987,1.9977,1.9987,2.0005,1.9994,2.0012,2.001,2.001,2.002,2.0006,2.0015,2.0004,2.0012,2.0005,2.0022,2.0023,2.0021,2.0019,2.0022,2.0022,2.0023,2.002,2.0014,2.0013,2.0013,2.0013,0,2.0013,2.0007,2.0024,2.0022,2.0022,2.0035,2.0033,2.0042,2.0038,2.0051,2.0053,2.0046,2.0056,2.0048,2.0057,2.0052,2.0074,2.0069,2.0074,2.0072,2.009,2.0088,2.0149,2.0156,2.01,2.01,2.0101,0,2.0039,2.005,2.005,2.0056,2.0057,2.0066,2.0071,2.0062,2.0067,2.007,2.0079,2.0088,2.0093,2.0109,2.0105,2.0112,2.0107,2.0127,2.0107,2.011,2.0107,2.0106,2.0107,2.0131,2.0132,2.0132,2.0133,0,2.0084,2.0081,2.0088,2.0095,2.0101,2.0106,2.011,2.0116,2.0106,2.0113,2.0123,2.0128,2.0138,2.0146,2.0152,2.0152,2.0141,2.0139,2.0144,2.0146,2.0149,2.0148,2.0085,2.0138,2.0137,2.0137,2.0137,2.0136,2.0118,2.0128,2.013,2.0139,2.0141,2.0145,2.0154,2.0152,2.016,2.0168,2.0162,2.0174,2.0176,2.0183,2.0184,2.0193,2.0185,2.0191,2.0192,2.0194,2.0197,2.0148,2.0195,2.0194,2.0194,2.0194,2.0194,0,2.0162,2.0163,2.0172,2.0178,2.0186,2.0176,2.018,2.0187,2.0198,2.02,2.0207,2.0219,2.0228,2.0225,2.0233,2.0241,2.0237,2.0244,2.0242,2.0243,2.0204,2.0199,2.0247,2.0247,2.0247,2.0247,2.0247,2.0247,2.0186,2.0203,2.02,2.0219,2.0219,2.0231,2.0235,2.0239,2.0241,2.0255,2.0263,2.0262,2.0262,2.0271,2.0278,2.0278,2.0281,2.029,2.0287,2.0251,2.0245,2.024,2.0236,2.0291,2.0291,2.0325,2.0325,2.0326]},{"header":{"parameterUnit":"m.s-1","parameterCategory":1,"la1":30.2991,"la2":30.254,"lo1":-89.0895,"lo2":-89.0444,"dy":0.0017,"dx":0.0017,"nx":28,"ny":28,"refTime":"2024-02-13T09:00:00:Z","depth":0,"parameterNumber":3,"parameterNumberName":"V-component_of_WINDS"},"data":[0,0,0,0,0,0,0,0,0,0,0,0,0,0,0,0,0,0,0,0,0,0,0,0,0,0,0,0,0,0,0,0,0,0,0,0,0,0,0,0,0,0,0,0,0,0,0,0,0,0,0,0,0,0,0,0,0,0,-4.8901,-4.8903,0,-4.9037,-4.9039,-4.904,-4.9049,-4.9048,-4.9046,-4.9045,-4.9181,-4.9186,-4.9191,0,0,0,0,0,0,0,0,0,0,0,0,0,-4.8647,-4.8651,-4.8901,-4.8903,-4.8905,-4.9037,-4.9039,-4.9041,-4.9049,-4.9048,-4.9046,-4.9044,-4.9179,-4.9185,-4.9191,0,0,0,0,0,0,0,0,0,0,0,0,0,-4.8767,-4.8653,-4.8901,-4.8925,-4.8928,-4.9037,-4.9039,-4.9041,-4.905,-4.9048,-4.9045,-4.9043,-4.9177,-4.9184,-4.9192,-4.9285,0,0,-4.9215,-4.9218,0,0,0,0,0,0,0,0,-4.8761,-4.8777,-4.892,-4.8923,-4.8928,-4.9024,-4.8999,-4.9123,-4.905,-4.9004,-4.9045,-4.9042,-4.913,-4.9141,-4.9172,-4.9291,-4.9297,-4.9216,-4.922,-4.9224,-4.9226,0,0,0,0,0,0,0,-4.8752,-4.8771,-4.8955,-4.8922,-4.8927,-4.8928,-4.8943,-4.9023,-4.9078,-4.9007,-4.9008,-4.9025,-4.9132,-4.9165,-4.9175,-4.9299,-4.9216,-4.9222,-4.9227,-4.923,-4.9503,-4.9505,0,0,0,0,0,0,-4.874,-4.8764,-4.8951,-4.8959,-4.8837,-4.8935,-4.8951,-4.8995,-4.9077,-4.9088,-4.9026,-4.9025,-4.9153,-4.9166,-4.918,-4.9296,-4.9224,-4.9231,-4.9235,-4.95,-4.9503,-4.9506,0,0,0,0,0,0,-4.8734,-4.8756,-4.8945,-4.8862,-4.8886,-4.8942,-4.8991,-4.8999,-4.9032,-4.9092,-4.9101,-4.905,-4.9152,-4.9169,-4.9259,-4.93,-4.9234,-4.9241,-4.9497,-4.9501,-4.9505,-4.9526,0,0,0,0,0,0,-4.8727,-4.8754,-4.879,-4.8863,-4.8891,-4.9023,-4.8994,-4.9003,-4.9045,-4.9044,-4.9116,-4.9126,-4.9151,-4.9248,-4.9267,-4.931,-4.9247,-4.9493,-4.9499,-4.9504,-4.9522,-4.953,-4.9538,0,0,0,0,0,-4.8718,-4.8789,-4.8792,-4.8814,-4.8937,-4.9025,-4.9041,-4.9069,-4.9049,-4.9085,-4.9124,-4.9123,-4.9293,-4.9257,-4.9278,-4.9324,-4.9491,-4.9497,-4.9503,-4.9518,-4.9529,-4.9537,0,0,0,0,0,0,-4.8719,-4.8799,-4.8803,-4.89,-4.8956,-4.9026,-4.9073,-4.9079,-4.9141,-4.9137,-4.9169,-4.9185,-4.9274,-4.9308,-4.9267,-4.9419,-4.9389,-4.94,-4.9394,-4.9404,-4.9412,-4.9402,-4.9253,0,0,0,0,0,-4.873,-4.8796,-4.8863,-4.8942,-4.897,-4.9017,-4.9056,-4.9074,-4.9132,-4.9155,-4.92,-4.9256,-4.9322,-4.9365,-4.9429,-4.9527,-4.9543,-4.9569,-4.9577,-4.9583,-4.9592,-4.9648,-4.966,-4.9526,-4.9526,-4.9526,0,0,-4.8755,-4.8807,-4.8846,-4.8944,-4.8989,-4.9056,-4.9037,-4.9108,-4.9158,-4.9166,-4.9254,-4.9289,-4.9354,-4.9449,-4.9493,-4.948,-4.9632,-4.959,-4.9595,-4.9601,-4.9655,-4.9668,-4.9679,-4.953,-4.953,-4.9529,0,0,-4.8834,-4.888,-4.8953,-4.8999,-4.9068,-4.9099,-4.9116,-4.9187,-4.9211,-4.93,-4.9309,-4.9368,-4.948,-4.9527,-4.9565,-4.9664,-4.9667,-4.9684,-4.9725,-4.9779,-4.979,-4.9799,-4.9836,-4.9849,-4.9693,-4.9693,-4.9693,0,-4.8856,-4.8958,-4.8988,-4.9061,-4.9104,-4.9116,-4.919,-4.9233,-4.9319,-4.9348,-4.9332,-4.9476,-4.952,-4.9626,-4.9651,-4.9681,-4.9702,-4.9676,-4.9786,-4.9796,-4.9805,-4.9841,-4.9854,-4.9695,-4.9694,-4.9694,-4.9694,0,-4.8982,-4.9052,-4.9103,-4.9188,-4.9236,-4.9308,-4.935,-4.9396,-4.9409,-4.9442,-4.9534,-4.9588,-4.9663,-4.969,-4.9703,-4.9799,-4.9789,-4.9779,-4.975,-4.9819,-4.9853,-4.9867,-4.9697,-4.9696,-4.9696,-4.9696,0,0,-4.9064,-4.9167,-4.9185,-4.9225,-4.9303,-4.9358,-4.9431,-4.9507,-4.9546,-4.9605,-4.9668,-4.9764,-4.9756,-4.98,-4.9818,-4.9866,-4.9943,-4.9851,-4.9853,-4.9867,-5.0054,-5.0062,-5.0077,-4.9945,-4.9948,-4.995,-5.0049,0,-4.9153,-4.9285,-4.9316,-4.9429,-4.9496,-4.9509,-4.9573,-4.9628,-4.9661,-4.9722,-4.9758,-4.9826,-4.981,-4.9836,-4.9884,-4.9924,-4.9981,-4.9917,-5.0004,-5.0007,-4.9988,-5.0094,-5.0102,-5.0193,-5.0062,-5.0065,-5.0066,0,-4.9274,-4.9339,-4.9459,-4.9531,-4.956,-4.9617,-4.969,-4.9748,-4.9811,-4.9831,-4.9881,-4.9896,-4.9972,-4.994,-5.0047,-5.0002,-5.004,-5.0065,-5.0069,-5.0078,-5.0041,-5.0107,-5.0222,-5.0236,-5.0087,-5.0085,-5.0084,0,-4.9324,-4.9441,-4.9528,-4.9562,-4.9647,-4.9687,-4.9724,-4.9785,-4.9829,-4.9893,-4.9922,-4.9993,-5.0032,-5.0086,-5.012,-5.0093,-5.0224,-5.0194,-5.0244,-5.0243,-5.0271,-5.0269,-5.0394,-5.0294,-5.0294,-5.0293,-5.0293,0,-4.9421,-4.9494,-4.9552,-4.9606,-4.9689,-4.9724,-4.9805,-4.9842,-4.9896,-4.9958,-4.9973,-5.003,-5.007,-5.0133,-5.0159,-5.0245,-5.0262,-5.0281,-5.0287,-5.028,-5.0278,-5.0305,-5.03,-5.0297,-5.0296,-5.0296,-5.0295,0,-4.949,-4.9532,-4.9629,-4.9703,-4.9723,-4.9781,-4.9844,-4.9897,-4.9931,-5.0008,-5.0029,-5.0081,-5.0156,-5.0195,-5.0288,-5.0306,-5.0402,-5.0404,-5.0381,-5.0384,-5.0432,-5.0428,-5.058,-5.0603,-5.0486,-5.0487,-5.0488,0,-4.9549,-4.9607,-4.9687,-4.973,-4.9769,-4.9838,-4.9884,-4.992,-4.9967,-5.0045,-5.0088,-5.0165,-5.0227,-5.0346,-5.0393,-5.0464,-5.0468,-5.0517,-5.0479,-5.0471,-5.0471,-5.0467,-5.0474,-5.0524,-5.0525,-5.0526,-5.0526,0,-4.965,-4.9669,-4.9735,-4.981,-4.9865,-4.9924,-4.9983,-5.0017,-5.0064,-5.0116,-5.0194,-5.0243,-5.0339,-5.0414,-5.049,-5.0528,-5.0535,-5.0538,-5.0554,-5.0547,-5.0533,-5.0543,-5.0401,-5.0535,-5.0534,-5.0533,-5.0533,-5.0532,-4.9717,-4.977,-4.9836,-4.9909,-4.9958,-5.0013,-5.0068,-5.0109,-5.0175,-5.0257,-5.0275,-5.0357,-5.042,-5.0522,-5.0563,-5.0628,-5.0617,-5.0639,-5.0645,-5.065,-5.0653,-5.0522,-5.0641,-5.0641,-5.0641,-5.0641,-5.064,0,-4.982,-4.9864,-4.9932,-5.0015,-5.0073,-5.0077,-5.0143,-5.0191,-5.0264,-5.0323,-5.0385,-5.0475,-5.0549,-5.0602,-5.0677,-5.0719,-5.0725,-5.0738,-5.0735,-5.0744,-5.0657,-5.0637,-5.0732,-5.0732,-5.0732,-5.0732,-5.0732,-5.0732,-4.9881,-4.997,-4.9997,-5.011,-5.0153,-5.0236,-5.0273,-5.0325,-5.0372,-5.0472,-5.0535,-5.0569,-5.0626,-5.0706,-5.0774,-5.0787,-5.0815,-5.0828,-5.0842,-5.076,-5.075,-5.0741,-5.0722,-5.0833,-5.0834,-5.0924,-5.0924,-5.0925]}]]